Kansas Department of Transportation
RWIS(Road and Runway Information System) Map and Weather Data





Station
Surface
Air
Wind
Site IDSensor TypeLocationTemperature (°F)Temperature (°F)Humidity (%)Speed (mi/h)Gusts (mi/h)DirectionTime
123014AtmosphericBull Creek 722324WSWFeb 21 2017 5:05PM
123014DeckBull Creek77     Feb 21 2017 5:05PM
123014DepartureBull Creek75     Feb 21 2017 5:05PM
123015AtmosphericLeavenworth 702426NNWFeb 21 2017 5:05PM
123015DeckLeavenworth72     Feb 21 2017 5:05PM
123015DepartureLeavenworth73     Feb 21 2017 5:05PM
123020AtmosphericMayetta 682845SSWFeb 21 2017 5:05PM
123020RoadwayMayetta75     Feb 21 2017 5:05PM
123020DeckMayetta79     Feb 21 2017 5:05PM
505000AtmosphericKTA 1 702613NNWFeb 21 2017 4:50PM
505000ApproachKTA 177     Feb 21 2017 4:50PM
505000DeckKTA 179     Feb 21 2017 4:50PM
505001AtmosphericKTA 2 732611NFeb 21 2017 4:50PM
505001ApproachKTA 277     Feb 21 2017 4:50PM
505001DeckKTA 279     Feb 21 2017 4:50PM
505002AtmosphericKTA 3 723012NWFeb 21 2017 4:50PM
505002ApproachKTA 379     Feb 21 2017 4:50PM
505002DeckKTA 379     Feb 21 2017 4:50PM
505003AtmosphericKTA 4 721824SWFeb 21 2017 4:50PM
505003ApproachKTA 481     Feb 21 2017 4:50PM
505003DeckKTA 477     Feb 21 2017 4:50PM
505004AtmosphericKTA 5 729923NFeb 21 2017 4:50PM
505004RoadwayKTA 579     Feb 21 2017 4:50PM
505004RoadwayKTA 579     Feb 21 2017 4:50PM
505005AtmosphericKTA 6 731712SFeb 21 2017 4:50PM
505005Approach KTA 681     Feb 21 2017 4:50PM
505005DeckKTA 679     Feb 21 2017 4:50PM
505006AtmosphericKTA 7 732512SWFeb 21 2017 4:50PM
505006ApproachKTA 779     Feb 21 2017 4:50PM
505006DeckKTA 782     Feb 21 2017 4:50PM
505007AtmosphericKTA 8 722823NNWFeb 21 2017 4:50PM
505007ApproachKTA 879     Feb 21 2017 4:50PM
505007DeckKTA 879     Feb 21 2017 4:50PM
505008AtmosphericKTA 9 721026WNWFeb 21 2017 4:50PM
505008ApproachKTA 979     Feb 21 2017 4:50PM
505008DeckKTA 977     Feb 21 2017 4:50PM
505009AtmosphericKTA 10 771144NWFeb 21 2017 4:50PM
505009ApproachKTA 1079     Feb 21 2017 4:50PM
505009DeckKTA 1081     Feb 21 2017 4:50PM
505010AtmosphericWebb 731814NEFeb 21 2017 5:05PM
505010DeckWebb77     Feb 21 2017 5:05PM
505010NullWebb75     Feb 21 2017 5:05PM
540000AtmosphericBlue Rapids 702747SFeb 21 2017 5:05PM
540000DeckBlue Rapids75     Feb 21 2017 5:05PM
540000DepartureBlue Rapids77     Feb 21 2017 5:05PM
540001AtmosphericSabetha 683435NEFeb 21 2017 5:05PM
540001ApproachSabetha75     Feb 21 2017 5:05PM
540001DeckSabetha75     Feb 21 2017 5:05PM
540002AtmosphericWestgate 722112NEFeb 21 2017 5:05PM
540002DeckWestgate73     Feb 21 2017 5:05PM
540002DepartureWestgate75     Feb 21 2017 5:05PM
540003AtmosphericEmporia 682612ESEFeb 21 2017 5:05PM
540003ApproachEmporiaUnavailable     Feb 21 2017 5:05PM
540003DeckEmporiaUnavailable     Feb 21 2017 5:05PM
540005AtmosphericLawrence 722449WFeb 21 2017 5:05PM
540005ApproachLawrence77     Feb 21 2017 5:05PM
540005DeckLawrenceUnavailable     Feb 21 2017 5:05PM
540006AtmosphericTroy 703745SSWFeb 21 2017 5:05PM
540006DeckTroy75     Feb 21 2017 5:05PM
540006DepartureTroy77     Feb 21 2017 5:05PM
540007AtmosphericManhattan 702323SSWFeb 21 2017 5:05PM
540007DepartureManhattan72     Feb 21 2017 5:05PM
540007DeckManhattan73     Feb 21 2017 5:05PM
541000AtmosphericElkhart 771312NNEFeb 21 2017 5:05PM
541000ApproachElkhartUnavailable     Feb 21 2017 5:05PM
541000DeckElkhartUnavailable     Feb 21 2017 5:05PM
541001AtmosphericSyracuse 7712213WSWFeb 21 2017 5:05PM
541001Out of Service for WinterSyracuse84     Feb 21 2017 5:05PM
541001DeckSyracuse79     Feb 21 2017 5:05PM
541002AtmosphericLiberal 791226NNWFeb 21 2017 5:05PM
541002ApproachLiberal86     Feb 21 2017 5:05PM
541002DeckLiberalUnavailable     Feb 21 2017 5:05PM
541003AtmosphericFord 791212SWFeb 21 2017 5:05PM
541003DeckFord84     Feb 21 2017 5:05PM
541003DepartureFord86     Feb 21 2017 5:05PM
541004AtmosphericScott 791123SEFeb 21 2017 5:05PM
541004DepartureScott86     Feb 21 2017 5:05PM
541005AtmosphericNess 791200SEFeb 21 2017 5:05PM
541005DeckNess84     Feb 21 2017 5:05PM
541005DepartureNess86     Feb 21 2017 5:05PM
541007AtmosphericGarden City 771525NFeb 21 2017 5:05PM
541007ApproachGarden City77     Feb 21 2017 5:05PM
541007DeckGarden City86     Feb 21 2017 5:05PM
543000AtmosphericJunction City 722225NEFeb 21 2017 5:05PM
543000ApproachJunction City75     Feb 21 2017 5:05PM
543000DeckJunction City77     Feb 21 2017 5:05PM
543001AtmosphericEllsworth 751079NFeb 21 2017 5:05PM
543001RoadwayEllsworth82     Feb 21 2017 5:05PM
543002AtmosphericMcPherson 722367SFeb 21 2017 5:05PM
543002ApproachMcPherson77     Feb 21 2017 5:05PM
543003AtmosphericSalina 751047NFeb 21 2017 5:05PM
543003DepartureSalina77     Feb 21 2017 5:05PM
543003RoadwaySalinaUnavailable     Feb 21 2017 5:05PM
543004AtmosphericConcordia 7518711SSWFeb 21 2017 5:05PM
543004ApproachConcordiaUnavailable     Feb 21 2017 5:05PM
543004DeckConcordia79     Feb 21 2017 5:05PM
543005AtmosphericPeabody 661734WSWFeb 21 2017 5:05PM
543005ApproachPeabody79     Feb 21 2017 5:05PM
543005DeckPeabodyUnavailable     Feb 21 2017 5:05PM
560000AtmosphericEdson 771546WSWFeb 21 2017 5:05PM
560000RoadwayEdson84     Feb 21 2017 5:05PM
560000RoadwayEdson79     Feb 21 2017 5:05PM
560001AtmosphericOakley 771646SSWFeb 21 2017 5:05PM
560001ApproachOakley82     Feb 21 2017 5:05PM
560001DeckOakley84     Feb 21 2017 5:05PM
560002AtmosphericAtwood 7913412SWFeb 21 2017 5:05PM
560002ApproachAtwood79     Feb 21 2017 5:05PM
560002DeckAtwood82     Feb 21 2017 5:05PM
560003AtmosphericJennings 791846NWFeb 21 2017 5:05PM
560003ApproachJennings88     Feb 21 2017 5:05PM
560003DeckJennings81     Feb 21 2017 5:05PM
560004AtmosphericWakeeney 791146WSWFeb 21 2017 5:05PM
560004ApproachWakeeney82     Feb 21 2017 5:05PM
560004DeckWakeeney84     Feb 21 2017 5:05PM
560005AtmosphericWalker 77946SWFeb 21 2017 5:05PM
560005ApproachWalker82     Feb 21 2017 5:05PM
560005DeckWalker82     Feb 21 2017 5:05PM
560006AtmosphericBow Creek(Stockton) 791027WNWFeb 21 2017 5:05PM
560006ApproachBow Creek(Stockton)82     Feb 21 2017 5:05PM
560006DeckBow Creek(Stockton)79     Feb 21 2017 5:05PM
560007AtmosphericLebanon 751569WSWFeb 21 2017 5:05PM
560007ApproachLebanon79     Feb 21 2017 5:05PM
560007DeckLebanon79     Feb 21 2017 5:05PM
560008AtmosphericWallace 771169SWFeb 21 2017 5:05PM
560008ApproachWallace84     Feb 21 2017 5:05PM
560008DeckWallace81     Feb 21 2017 5:05PM
572000AtmosphericGreat Bend 751646WFeb 21 2017 5:05PM
572000ApproachGreat Bend82     Feb 21 2017 5:05PM
572000DeckGreat Bend82     Feb 21 2017 5:05PM
572001AtmosphericPratt 771003SSWFeb 21 2017 5:05PM
572001ApproachPratt81     Feb 21 2017 5:05PM
572001DeckPratt82     Feb 21 2017 5:05PM
572002AtmosphericAnthony 703324SEFeb 21 2017 5:05PM
572002ApproachAnthony82     Feb 21 2017 5:05PM
572002DeckAnthony81     Feb 21 2017 5:05PM
573000AtmosphericEureka 701924NFeb 21 2017 5:05PM
573000DeckEureka81     Feb 21 2017 5:05PM
573000DepartureEureka77     Feb 21 2017 5:05PM
573001AtmosphericGarnett 703523NNWFeb 21 2017 5:05PM
573001ApproachGarnett77     Feb 21 2017 5:05PM
573001DeckGarnett79     Feb 21 2017 5:05PM
573002AtmosphericCaney 753326NNWFeb 21 2017 5:00PM
573002RoadwayCaney81     Feb 21 2017 5:00PM
573004AtmosphericChanute 733615NWFeb 21 2017 5:05PM
573004ApproachChanute79     Feb 21 2017 5:05PM
573004DeckChanute79     Feb 21 2017 5:05PM